Location: Newark
(36.0797°N, 3.9744°E)
Time: 00:43:44
(UTC+00:00)

Courier 1B - All Passes

Search period start: 06 December 2019 00:00
Search period end: 16 December 2019 00:00
Orbit: 963 x 1209 km, 28.3° (Epoch: 05 December)

Date Brightness Start Highest point End Pass type
(mag) Time Alt. Az. Time Alt. Az. Time Alt. Az.
06 Dec - 00:24:46 10° WSW 00:32:14 48° S 00:39:39 10° ESE night (unlit)
06 Dec - 02:18:55 10° W 02:26:09 41° SSW 02:33:10 10° SE visible
06 Dec - 04:14:11 10° WSW 04:19:40 21° SSW 04:24:59 10° SSE visible
06 Dec - 19:49:09 10° SSE 19:51:18 11° SSE 19:53:30 10° SE visible
06 Dec - 21:38:10 10° SW 21:44:36 30° SSE 21:51:12 10° ESE night (unlit)
06 Dec - 23:31:00 10° WSW 23:38:21 47° S 23:45:47 10° ESE night (unlit)
07 Dec - 01:24:56 10° WSW 01:32:18 45° S 01:39:33 10° ESE visible
07 Dec - 03:19:43 10° WSW 03:25:59 27° SSW 03:32:04 10° SSE visible
07 Dec - 20:45:04 10° SSW 20:50:53 25° SSE 20:56:53 10° ESE visible
07 Dec - 22:37:20 10° WSW 22:44:29 43° S 22:51:50 10° ESE night (unlit)
08 Dec - 00:31:00 10° WSW 00:38:26 47° S 00:45:51 10° ESE night (unlit)
08 Dec - 02:25:28 10° WSW 02:32:14 32° SSW 02:38:51 10° SE visible
08 Dec - 04:22:18 10° WSW 04:25:35 13° SSW 04:28:49 10° S visible
08 Dec - 19:52:17 10° SSW 19:57:13 19° SSE 20:02:18 10° ESE visible
08 Dec - 21:43:46 10° SW 21:50:41 39° SSE 21:57:48 10° E night (unlit)
08 Dec - 23:37:10 10° WSW 23:44:33 49° S 23:52:02 10° ESE night (unlit)
09 Dec - 01:31:22 10° W 01:38:26 37° SSW 01:45:26 10° SE night (unlit)
09 Dec - 03:27:01 10° WSW 03:31:56 18° SSW 03:36:45 10° SSE visible
09 Dec - 19:00:03 10° S 19:03:35 14° SSE 19:07:13 10° ESE visible
09 Dec - 20:50:24 10° SW 20:56:53 34° SSE 21:03:40 10° E visible
09 Dec - 22:43:24 10° WSW 22:50:40 48° S 22:58:08 10° ESE night (unlit)
10 Dec - 00:37:22 10° W 00:44:36 42° SSW 00:51:51 10° SE night (unlit)
10 Dec - 02:32:22 10° WSW 02:38:14 23° SSW 02:44:01 10° SSE visible
10 Dec - 19:57:12 10° SW 20:03:11 28° SSE 20:09:26 10° ESE visible
10 Dec - 21:49:45 10° WSW 21:56:49 45° S 22:04:11 10° ESE night (unlit)
10 Dec - 23:43:28 10° WSW 23:50:44 45° S 23:58:07 10° ESE night (unlit)
11 Dec - 01:38:02 10° WSW 01:44:29 28° SSW 01:50:54 10° SE night (unlit)
11 Dec - 03:37:08 10° SW 03:37:49 10° SSW 03:38:31 10° SSW visible
11 Dec - 19:04:15 10° SSW 19:09:32 22° SSE 19:15:02 10° ESE visible
11 Dec - 20:56:12 10° SW 21:03:01 42° SSE 21:10:09 10° ESE visible
11 Dec - 22:49:40 10° WSW 22:56:52 47° S 23:04:19 10° ESE night (unlit)
12 Dec - 00:43:54 10° WSW 00:50:42 33° SSW 00:57:33 10° SE night (unlit)
12 Dec - 02:40:13 10° WSW 02:44:10 15° SSW 02:48:06 10° S visible
12 Dec - 18:11:41 10° S 18:15:56 17° SSE 18:20:19 10° ESE visible
12 Dec - 20:02:47 10° SW 20:09:15 37° SSE 20:16:04 10° E visible
12 Dec - 21:55:56 10° WSW 22:03:01 48° S 22:10:25 10° ESE night (unlit)
12 Dec - 23:49:55 10° W 23:56:52 38° SSW 00:04:00 10° SE night (unlit)
13 Dec - 01:45:16 10° WSW 01:50:28 19° SSW 01:55:40 10° SSE night (unlit)
13 Dec - 17:19:55 10° S 17:22:23 12° SSE 17:24:53 10° SE visible
13 Dec - 19:09:31 10° SW 19:15:34 31° SSE 19:21:54 10° ESE visible
13 Dec - 21:02:18 10° WSW 21:09:11 46° S 21:16:28 10° ESE visible
13 Dec - 22:56:03 10° WSW 23:03:03 42° S 23:10:19 10° ESE night (unlit)
14 Dec - 00:50:48 10° WSW 00:56:44 24° SSW 01:02:44 10° SSE night (unlit)
14 Dec - 18:16:27 10° SSW 18:21:55 25° SSE 18:27:39 10° ESE visible
14 Dec - 20:08:46 10° WSW 20:15:25 43° S 20:22:28 10° ESE visible
14 Dec - 22:02:17 10° WSW 22:09:13 45° S 22:16:31 10° ESE night (unlit)
14 Dec - 23:56:37 10° WSW 00:02:58 29° SSW 00:09:28 10° SE night (unlit)
15 Dec - 01:54:18 10° SW 01:56:23 11° SSW 01:58:30 10° SSW night (unlit)
15 Dec - 17:23:39 10° SSW 17:28:20 20° SSE 17:33:12 10° ESE visible
15 Dec - 19:15:19 10° SW 19:21:41 39° SSE 19:28:26 10° ESE visible
15 Dec - 21:08:35 10° WSW 21:15:25 47° S 21:22:38 10° ESE visible
15 Dec - 23:02:38 10° WSW 23:09:11 34° SSW 23:16:00 10° SE night (unlit)
